This is the latest recevied weather packets stored in our database for station/object KC2WGU. If no packets are shown the sender has not sent any weather packets the latest 10 day(s).
| Time | Temp. | Humidity | Pressure | Rain* | Wind** | Luminosity | Snow |
|---|---|---|---|---|---|---|---|
| 1777662018 | 11.67° C | 49% | 1008.6 hPa | 0 mm | - | 0 W/m² | - |
| 1777661417 | 11.67° C | 49% | 1008.6 hPa | 0 mm | - | 0 W/m² | - |
| 1777660816 | 12.78° C | 54% | 1008.6 hPa | 0 mm | - | 0 W/m² | - |
| 1777660217 | 13.33° C | 54% | 1008.7 hPa | 0 mm | - | 0 W/m² | - |
| 1777659616 | 12.22° C | 52% | 1008.8 hPa | 0 mm | - | 0 W/m² | - |
| 1777659017 | 11.11° C | 52% | 1008.8 hPa | 0 mm | - | 0 W/m² | - |
| 1777658418 | 11.11° C | 49% | 1009 hPa | 0 mm | - | 0 W/m² | - |
| 1777657817 | 11.67° C | 51% | 1009.1 hPa | 0 mm | - | 0 W/m² | - |
| 1777657217 | 11.67° C | 50% | 1009.2 hPa | 0 mm | - | 0 W/m² | - |
| 1777656617 | 11.67° C | 53% | 1009.2 hPa | 0 mm | - | 0 W/m² | - |
| 1777656017 | 11.67° C | 53% | 1009.2 hPa | 0 mm | - | 0 W/m² | - |
| 1777655417 | 11.11° C | 49% | 1009.2 hPa | 0 mm | - | 0 W/m² | - |
| 1777654817 | 11.11° C | 51% | 1009.5 hPa | 0 mm | - | 0 W/m² | - |
| 1777654217 | 11.11° C | 51% | 1009.5 hPa | 0 mm | - | 0 W/m² | - |
| 1777653617 | 11.67° C | 54% | 1009.7 hPa | 0 mm | - | 0 W/m² | - |
| 1777653017 | 10.56° C | 55% | 1009.8 hPa | 0 mm | - | 0 W/m² | - |
| 1777652417 | 10.56° C | 54% | 1009.9 hPa | 0 mm | - | 0 W/m² | - |
| 1777651816 | 10.56° C | 56% | 1010.1 hPa | 0 mm | - | 0 W/m² | - |
| 1777651222 | 10° C | 56% | 1010.1 hPa | 0 mm | - | 0 W/m² | - |
| 1777650617 | 10° C | 59% | 1010 hPa | 0 mm | - | 0 W/m² | - |
| 1777650016 | 10° C | 53% | 1010.1 hPa | 0 mm | - | 0 W/m² | - |
| 1777649417 | 10° C | 52% | 1010.1 hPa | 0 mm | - | 0 W/m² | - |
| 1777648816 | 10.56° C | 55% | 1010.1 hPa | 0 mm | - | 0 W/m² | - |
| 1777648216 | 10.56° C | 56% | 1010.1 hPa | 0 mm | - | 0 W/m² | - |
| 1777647616 | 10° C | 59% | 1010.2 hPa | 0 mm | - | 0 W/m² | - |
* Rain latest hour (hover to see other rain measurements)
** Current wind speed in m/s (hover to see current wind gust speed)